AEHF-1 (USA 214)

Last updated on Wed Mar 11 2026 00:02:52 GMT+0000 (Coordinated Universal Time)

1 36868U 10039A 26069.12405892 .00000150 00000+0 00000+0 0 9992 2 36868 7.9746 69.3364 0004387 281.3641 251.7388 1.00268426 52666
UTC large
Height (km)
Speed (km/s)
/
Latitude / Longitude
Inclination (degrees)
Orbital Period (minutes)
Azimuth
Elevation
Range (km)
Doppler Factor

Next 0 passes for location: London (51.5072 / 0.1276)

Sorry there are no passes over London.